Location: Unspecified
(0.0000°N, 0.0000°E)
Time: 06:45:27
(UTC+00:00)

Vanguard 3 - All Passes

Search period start: 02 September 2014 00:00
Search period end: 12 September 2014 00:00
Orbit: 508 x 3279 km, 33.4° (Epoch: 01 September)

Date Brightness Start Highest point End Pass type
(mag) Time Alt. Az. Time Alt. Az. Time Alt. Az.
02 Sep - 01:01:39 10° WSW 01:03:36 13° SW 01:05:26 10° S night (unlit)
02 Sep - 07:44:58 10° S 07:51:00 16° SE 07:58:50 10° ESE daylight
02 Sep - 09:53:37 10° SW 10:05:57 57° SE 10:24:42 10° ENE daylight
02 Sep - 12:06:43 10° WSW 12:22:43 65° NW 12:42:40 10° NE daylight
02 Sep - 14:26:19 10° W 14:42:00 29° NNW 14:56:55 10° NNE daylight
02 Sep - 16:55:54 10° NW 17:03:22 13° NNW 17:09:48 10° NNE daylight
02 Sep - 19:19:41 10° NNW 19:23:38 12° N 19:27:00 10° NNE visible
02 Sep - 21:32:50 10° NNW 21:39:48 28° NNE 21:44:22 10° E visible
02 Sep - 23:47:05 10° WNW 23:52:15 41° SW 23:55:56 10° SSE night (unlit)
03 Sep - 08:42:38 10° SSW 08:52:19 36° SE 09:07:11 10° E daylight
03 Sep - 10:53:42 10° SW 11:07:40 87° NW 11:27:57 10° NE daylight
03 Sep - 13:09:43 10° W 13:25:54 41° NNW 13:43:43 10° NE daylight
03 Sep - 15:34:38 10° WNW 15:46:45 19° NNW 15:57:27 10° NNE daylight
03 Sep - 18:03:27 10° NNW 18:08:28 12° N 18:12:48 10° NNE daylight
03 Sep - 20:19:29 10° NNW 20:26:38 20° NNE 20:31:40 10° ENE visible
03 Sep - 22:33:27 10° NW 22:40:45 75° NE 22:45:11 10° ESE visible
04 Sep - 07:32:51 10° S 07:39:10 19° SE 07:47:46 10° ESE daylight
04 Sep - 09:41:46 10° SW 09:53:26 66° SE 10:12:07 10° ENE daylight
04 Sep - 11:55:08 10° WSW 12:10:11 56° NNW 12:29:47 10° NE daylight
04 Sep - 14:15:21 10° WNW 14:30:03 26° NNW 14:44:28 10° NNE daylight
04 Sep - 16:44:12 10° NNW 16:52:16 14° N 16:59:12 10° NNE daylight
04 Sep - 19:05:21 10° NNW 19:12:34 16° NNE 19:18:03 10° NE visible
04 Sep - 21:19:52 10° NW 21:28:31 40° NNE 21:33:42 10° E visible
04 Sep - 23:35:34 10° W 23:40:38 29° SW 23:44:16 10° SSE night (unlit)
05 Sep - 08:30:45 10° SSW 08:40:02 41° SE 08:55:03 10° ENE daylight
05 Sep - 10:42:02 10° WSW 10:55:08 77° NW 11:15:01 10° NE daylight
05 Sep - 12:58:31 10° W 13:13:40 35° NNW 13:30:55 10° NNE daylight
05 Sep - 15:23:49 10° NW 15:35:21 18° NNW 15:45:44 10° NNE daylight
05 Sep - 17:49:45 10° NNW 17:57:26 15° N 18:03:38 10° NE daylight
05 Sep - 20:06:00 10° NNW 20:15:25 27° NNE 20:21:27 10° ENE visible
05 Sep - 22:21:10 10° WNW 22:29:12 77° SW 22:33:55 10° SE visible
06 Sep - 07:20:49 10° S 07:27:14 22° SE 07:36:27 10° E daylight
06 Sep - 09:30:02 10° SW 09:40:59 76° SE 09:59:22 10° ENE daylight
06 Sep - 11:43:45 10° W 11:57:51 48° NNW 12:16:46 10° NE daylight
06 Sep - 14:04:36 10° WNW 14:18:18 23° NNW 14:32:05 10° NNE daylight
06 Sep - 16:32:04 10° NNW 16:41:11 15° N 16:48:56 10° NNE daylight
06 Sep - 18:51:36 10° NNW 19:01:23 21° NNE 19:08:15 10° ENE visible
06 Sep - 21:06:59 10° NW 21:17:05 56° NNE 21:22:46 10° ESE visible
06 Sep - 23:24:12 10° W 23:28:56 21° SW 23:32:26 10° S night (unlit)
07 Sep - 08:18:57 10° SSW 08:27:46 48° SE 08:42:43 10° ENE daylight
07 Sep - 10:30:31 10° WSW 10:42:47 66° NNW 11:01:58 10° NE daylight
07 Sep - 12:47:34 10° W 13:01:39 31° NNW 13:18:04 10° NNE daylight
07 Sep - 15:12:52 10° NW 15:24:04 17° N 15:34:19 10° NNE daylight
07 Sep - 17:36:15 10° NNW 17:46:17 18° N 17:54:00 10° NE daylight
07 Sep - 19:52:40 10° NW 20:04:03 36° NNE 20:10:52 10° E visible
07 Sep - 22:08:58 10° WNW 22:17:32 56° SW 22:22:31 10° SE visible
08 Sep - 07:08:52 10° S 07:15:15 25° SE 07:24:53 10° E daylight
08 Sep - 09:18:26 10° SW 09:28:39 88° SE 09:46:28 10° NE daylight
08 Sep - 11:32:35 10° W 11:45:42 41° NNW 12:03:39 10° NE daylight
08 Sep - 13:54:00 10° WNW 14:06:45 21° NNW 14:19:47 10° NNE daylight
08 Sep - 16:19:36 10° NNW 16:30:03 17° N 16:38:49 10° NE daylight
08 Sep - 18:38:01 10° NNW 18:50:03 27° NNE 18:58:01 10° ENE visible
08 Sep - 20:54:11 10° NW 21:05:31 75° NE 21:11:39 10° ESE visible
08 Sep - 23:13:05 10° W 23:17:12 17° SW 23:20:24 10° S night (unlit)
09 Sep - 08:07:15 10° SW 08:15:33 56° SE 08:30:14 10° ENE daylight
09 Sep - 10:19:11 10° WSW 10:30:36 56° NNW 10:48:47 10° NE daylight
09 Sep - 12:36:51 10° WNW 12:49:51 27° NNW 13:05:12 10° NNE daylight
09 Sep - 15:01:39 10° NW 15:12:52 17° N 15:23:13 10° NNE daylight
09 Sep - 17:22:50 10° NNW 17:35:01 22° NNE 17:44:01 10° ENE daylight
09 Sep - 19:39:25 10° NW 19:52:33 48° NNE 20:00:01 10° E visible
09 Sep - 21:56:51 10° WNW 22:05:44 43° SW 22:10:59 10° SSE visible
10 Sep - 06:57:00 10° SSW 07:03:15 29° SE 07:13:08 10° E daylight
10 Sep - 09:06:58 10° WSW 09:16:29 79° NW 09:33:26 10° NE daylight
10 Sep - 11:21:38 10° W 11:33:46 34° NNW 11:50:27 10° NE daylight
10 Sep - 13:43:26 10° NW 13:55:21 19° N 14:07:41 10° NNE daylight
10 Sep - 16:06:53 10° NNW 16:18:50 19° N 16:28:44 10° NE daylight
10 Sep - 18:24:33 10° NW 18:38:34 34° NNE 18:47:27 10° E visible
10 Sep - 20:41:26 10° NW 20:53:46 85° SW 21:00:23 10° SE visible
10 Sep - 23:02:19 10° WSW 23:05:28 13° SW 23:08:04 10° SSW night (unlit)
11 Sep - 05:48:59 10° SSE 05:51:15 12° SE 05:53:52 10° ESE daylight
11 Sep - 07:55:40 10° SW 08:03:25 67° SE 08:17:36 10° ENE daylight
11 Sep - 10:08:02 10° W 10:18:37 46° NNW 10:35:30 10° NE daylight
11 Sep - 12:26:21 10° WNW 12:38:14 23° NNW 12:52:21 10° NNE daylight
11 Sep - 14:50:05 10° NW 15:01:40 18° N 15:12:25 10° NE daylight
11 Sep - 17:09:27 10° NNW 17:23:34 27° NNE 17:33:43 10° ENE daylight
11 Sep - 19:26:14 10° NW 19:40:51 61° NNE 19:48:57 10° ESE visible
11 Sep - 21:44:51 10° WNW 21:53:51 34° SW 21:59:21 10° SSE visible
